Regional Weather Roundup
Issued by NWS Northern Indiana

Home | Current Version | Previous Version | Graphics & Text | Print | Product List | Glossary On
Versions: 1 2 3 4 5 6 7 8 9 10 11 12 13 14 15 16 17 18 19 20 21 22 23 24 25 26 27 28 29 30 31 32 33 34 35 36 37 38 39 40 41 42 43 44 45 46 47 48 49 50
000
ASUS43 KIWX 240310
RWRIWX

KIWX WEATHER ROUNDUP
NATIONAL WEATHER SERVICE NORTHERN INDIANA
1100 PM EDT SAT MAY 23 2015

NOTE: "FAIR" INDICATES FEW OR NO CLOUDS BELOW 12,000 FEET WITH NO
SIGNIFICANT WEATHER AND/OR OBSTRUCTIONS TO VISIBILITY.

* THESE STATIONS ARE NOT UNDER NWS QUALITY CONTROL. THEY ALSO MAY NOT
  REPORT WEATHER SUCH AS PRECIPITATION OR FOG.

INZ001>027-240400-
NORTHERN INDIANA

CITY           SKY/WX    TMP DP  RH WIND       PRES   REMARKS
GARY*          CLEAR     70  45  40 S8        30.21
VALPARAISO     CLEAR     68  44  42 S6        30.23R
MICHIGAN CITY* CLEAR     59  46  63 CALM      30.23R
LAPORTE*       CLEAR     64  47  53 CALM      30.23S
KNOX*          CLEAR     61  45  55 S5        30.23R
SOUTH BEND     CLEAR     66  46  48 CALM      30.24R
GOSHEN         CLEAR     63  48  58 SE6       30.24R
MONTICELLO*    PTCLDY    65  49  56 S3        30.23R
LOGANSPORT*    PTCLDY    63  39  42 S5        30.26R
ROCHESTER*     CLEAR     68  48  49 CALM      30.25R
WARSAW*        CLEAR     59  50  72 CALM      30.25R
ANGOLA*        CLEAR     57  52  82 CALM      30.26S
FORT WAYNE     PTCLDY    64  49  57 SE3       30.27R
HUNTINGTON*    CLEAR     59  48  65 CALM      30.26R
PERU/GRISSOM   PTCLDY    64  45  49 S5        30.24R
MARION*        PTCLDY    61  45  56 SE3       30.27R

$$
INZ028>050-240400-
CENTRAL INDIANA

CITY           SKY/WX    TMP DP  RH WIND       PRES   REMARKS
LAFAYETTE      MOCLDY    61  49  64 CALM      30.23R
KOKOMO*        PTCLDY    63  46  55 S6        30.26R
MUNCIE*        PTCLDY    66  46  48 S3        30.27R
INDIANAPOLIS   MOCLDY    68  44  42 SE6       30.24R

$$
MIZ043>046-050>051-056>058-064>065-071>073-077>080-240400-
SOUTHWEST LOWER MICHIGAN

CITY           SKY/WX    TMP DP  RH WIND       PRES   REMARKS
BATTLE CREEK   CLEAR     63  47  55 CALM      30.26R
BENTON HARBOR  PTCLDY    58  48  69 CALM      30.22R
COLDWATER*     PTCLDY    61  49  66 SE3       30.25S
HILLSDALE*     CLEAR     59  46  63 CALM      30.27S
HOLLAND        CLEAR     60  46  59 CALM      30.24R
GRAND RAPIDS   PTCLDY    59  44  57 SE3       30.24R
KALAMAZOO      PTCLDY    63  45  51 CALM      30.25R
STURGIS*       PTCLDY    64  46  52 SE3       30.24S
THREE RIVERS*  FAIR      61  49  65 CALM      30.24S

$$
OHZ001>008-015>018-024>025-240400-
NORTHWEST OHIO

CITY           SKY/WX    TMP DP  RH WIND       PRES   REMARKS
WAUSEON*       FAIR      63  46  55 SE6       30.27S
DEFIANCE       PTCLDY    61  50  67 CALM      30.26S
FINDLAY        MOCLDY    66  46  48 S6        30.27S
TOLEDO EXPRESS CLEAR     61  42  49 SE3       30.27S
TOLEDO METCALF CLEAR     60  42  51 E6        30.28S
LIMA           CLEAR     65  45  48 S6        30.28S

$$
AND FOR LAKE MICHIGAN COASTAL AND OPEN LAKE BUOY OBSERVATIONS

STATION/POSITION TEMP    WIND        PRES    VSBY  WAVE
                 AIR SEA DIR/SP/G                  HT/PER
                 (F)     (DEG/KT/KT) (MB)    (MI)  (FT/S)
CALUMET HARBOR    62     180/  2/  2   N/A
MICHIGAN CITY     70     120/  7/  8   N/A
BURNS HARBOR      71     180/  7/ 10 1023.4S
SAINT JOSEPH      65      CALM  /  1 1023.4F
SOUTH LAKE BUOY   48 38  120/ 10/ 10 1023.4R         0
4 MI NW BRIDGMAN  63 58  160/  6/  6   N/A           0
MICHIGAN CITY     62 53  140/  4/  6   N/A           1
MICHIGAN CITY CG                     1024.9      6   1

$$
&&


USA.gov is the U.S. government's official web portal to all federal, state and local government web resources and services.